Location: Clanezzo
(45.7500°N, 9.6000°E)
Time: 13:48:02
(UTC+00:00)

Cosmos 1328 Rocket - Pass Details

Date: 12 May 2021
Orbit: 600 x 628 km, 82.5° (Epoch: 19 June)

Event Time Altitude Azimuth Distance (km) Brightness Sun altitude
Exits shadow 19:22:28 - 158° (SSE) 2,559 6.2 -6.7°
Reaches altitude 10° 19:24:00 10° 151° (SSE) 1,995 5.6 -6.9°
Maximum altitude 19:27:52 31° 90° (E) 1,113 4.5 -7.5°
Drops below altitude 10° 19:31:45 10° 29° (NNE) 1,999 6.3 -8.0°
Sets 19:34:10 0° 19° (NNE) 2,906 7.3 -8.4°
